When you browse on this site, cookies collect data to enhance your experience and personalize the content and advertising you see.
Visit our Privacy Policy to learn more. By continuing to use the site, you agree to this use of cookies and data.

Hourly Weather Dobrich

Today, 23 September, Wednesday

Time Temperature Precipitation Wind Pressure Humidity
00:00 +14°C° 0 mm 1 mps 741 mmHg 79%
01:00 +13°C° 0 mm 1 mps 741 mmHg 81%
02:00 +13°C° 0 mm 1 mps 740 mmHg 85%
03:00 +13°C° 0 mm 1 mps 740 mmHg 86%
04:00 +13°C° 0 mm 1 mps 740 mmHg 86%
05:00 +13°C° 0 mm 1 mps 740 mmHg 87%
06:00 +15°C° 0 mm 1 mps 740 mmHg 80%
07:00 +17°C° 0 mm 2 mps 740 mmHg 74%
08:00 +18°C° 0 mm 2 mps 740 mmHg 67%
09:00 +20°C° 0 mm 2 mps 740 mmHg 59%
10:00 +22°C° 0 mm 3 mps 740 mmHg 51%
11:00 +25°C° 0 mm 3 mps 740 mmHg 43%
12:00 +26°C° 0 mm 3 mps 740 mmHg 41%
13:00 +27°C° 0 mm 3 mps 739 mmHg 38%
14:00 +27°C° 0 mm 3 mps 739 mmHg 36%
15:00 +26°C° 0 mm 4 mps 738 mmHg 43%
16:00 +25°C° 0 mm 4 mps 738 mmHg 50%
17:00 +23°C° 0 mm 5 mps 737 mmHg 56%
18:00 +21°C° 0 mm 5 mps 737 mmHg 63%
19:00 +19°C° 0 mm 4 mps 737 mmHg 71%
20:00 +18°C° 0 mm 4 mps 737 mmHg 78%
21:00 +17°C° 0 mm 4 mps 737 mmHg 80%
22:00 +17°C° 0 mm 4 mps 737 mmHg 82%
23:00 +17°C° 0 mm 4 mps 737 mmHg 83%

Tomorrow, 24 September, Thursday

Time Temperature Precipitation Wind Pressure Humidity
00:00 +17°C° 0 mm 3 mps 737 mmHg 85%
01:00 +17°C° 0 mm 3 mps 737 mmHg 87%
02:00 +17°C° 0 mm 3 mps 737 mmHg 89%
03:00 +17°C° 0 mm 3 mps 736 mmHg 90%
04:00 +17°C° 0 mm 3 mps 736 mmHg 90%
05:00 +17°C° 0 mm 3 mps 736 mmHg 90%
06:00 +19°C° 0 mm 3 mps 736 mmHg 84%
07:00 +20°C° 0 mm 3 mps 737 mmHg 78%
08:00 +21°C° 0 mm 4 mps 737 mmHg 71%
09:00 +23°C° 0 mm 4 mps 737 mmHg 60%
10:00 +26°C° 0 mm 4 mps 737 mmHg 48%
11:00 +29°C° 0 mm 4 mps 737 mmHg 37%
12:00 +29°C° 0 mm 4 mps 737 mmHg 35%
13:00 +30°C° 0 mm 4 mps 737 mmHg 34%
14:00 +30°C° 0 mm 4 mps 736 mmHg 33%
15:00 +29°C° 0 mm 4 mps 736 mmHg 40%
16:00 +27°C° 0 mm 4 mps 736 mmHg 47%
17:00 +26°C° 0 mm 5 mps 736 mmHg 53%
18:00 +23°C° 0 mm 4 mps 736 mmHg 65%
19:00 +21°C° 0 mm 4 mps 736 mmHg 76%
20:00 +19°C° 0 mm 3 mps 736 mmHg 87%
21:00 +19°C° 0 mm 3 mps 736 mmHg 88%
22:00 +19°C° 0 mm 3 mps 736 mmHg 89%
23:00 +18°C° 0 mm 3 mps 736 mmHg 90%

Day after tomorrow, 25 September, Friday

Time Temperature Precipitation Wind Pressure Humidity
00:00 +18°C° 0 mm 3 mps 736 mmHg 89%
01:00 +18°C° 0 mm 3 mps 736 mmHg 89%
02:00 +18°C° 0 mm 3 mps 736 mmHg 89%
03:00 +18°C° 0 mm 2 mps 735 mmHg 89%
04:00 +18°C° 0 mm 2 mps 735 mmHg 89%
05:00 +18°C° 0 mm 2 mps 735 mmHg 90%
06:00 +19°C° 0 mm 2 mps 735 mmHg 83%
07:00 +20°C° 0 mm 2 mps 735 mmHg 76%
08:00 +21°C° 0 mm 3 mps 735 mmHg 70%
09:00 +24°C° 0 mm 3 mps 735 mmHg 61%
10:00 +26°C° 0 mm 4 mps 735 mmHg 52%
11:00 +28°C° 0 mm 5 mps 735 mmHg 43%
12:00 +29°C° 0 mm 5 mps 735 mmHg 42%
13:00 +29°C° 0 mm 6 mps 734 mmHg 41%
14:00 +29°C° 0 mm 6 mps 734 mmHg 40%
15:00 +28°C° 0 mm 6 mps 733 mmHg 45%
16:00 +26°C° 0 mm 6 mps 733 mmHg 50%
17:00 +24°C° 0 mm 6 mps 732 mmHg 54%
18:00 +23°C° 0 mm 5 mps 732 mmHg 62%
19:00 +21°C° 0 mm 5 mps 732 mmHg 69%
20:00 +20°C° 0 mm 5 mps 732 mmHg 76%
21:00 +20°C° 0 mm 5 mps 732 mmHg 78%
22:00 +20°C° 0 mm 5 mps 732 mmHg 79%
23:00 +20°C° 0 mm 6 mps 732 mmHg 81%

26 September, Saturday

Time Temperature Precipitation Wind Pressure Humidity
00:00 +19°C° 0 mm 6 mps 731 mmHg 83%
01:00 +19°C° 0 mm 5 mps 731 mmHg 84%
02:00 +19°C° 0 mm 5 mps 730 mmHg 86%
03:00 +19°C° 0 mm 5 mps 730 mmHg 88%
04:00 +19°C° 0 mm 5 mps 730 mmHg 89%
05:00 +19°C° 0 mm 5 mps 729 mmHg 91%
06:00 +20°C° 0 mm 6 mps 729 mmHg 85%
07:00 +21°C° 0 mm 7 mps 729 mmHg 79%
08:00 +22°C° 0 mm 7 mps 729 mmHg 73%
09:00 +24°C° 0 mm 8 mps 729 mmHg 64%
10:00 +26°C° 0 mm 8 mps 728 mmHg 56%
11:00 +28°C° 0 mm 9 mps 728 mmHg 47%
12:00 +28°C° 0 mm 8 mps 728 mmHg 46%
13:00 +29°C° 0 mm 8 mps 727 mmHg 45%
14:00 +29°C° 0 mm 8 mps 727 mmHg 43%
15:00 +28°C° 0 mm 8 mps 726 mmHg 46%
16:00 +27°C° 0 mm 7 mps 726 mmHg 49%
17:00 +26°C° 0 mm 6 mps 726 mmHg 51%
18:00 +24°C° 0 mm 7 mps 726 mmHg 55%
19:00 +24°C° 0 mm 7 mps 726 mmHg 59%
20:00 +23°C° 0 mm 7 mps 726 mmHg 63%
21:00 +22°C° 1 mm 6 mps 725 mmHg 68%
22:00 +21°C° 1 mm 6 mps 725 mmHg 74%
23:00 +20°C° 1 mm 5 mps 725 mmHg 79%

27 September, Sunday

Time Temperature Precipitation Wind Pressure Humidity
00:00 +18°C° 0.6 mm 4 mps 725 mmHg 80%
01:00 +17°C° 0.6 mm 4 mps 725 mmHg 80%
02:00 +14°C° 0.6 mm 3 mps 725 mmHg 81%
03:00 +14°C° 0 mm 3 mps 725 mmHg 82%
04:00 +13°C° 0 mm 3 mps 726 mmHg 83%
05:00 +14°C° 0 mm 2 mps 726 mmHg 83%
06:00 +13°C° 0 mm 3 mps 727 mmHg 81%
07:00 +14°C° 0 mm 4 mps 728 mmHg 79%
08:00 +14°C° 0 mm 5 mps 729 mmHg 76%
09:00 +16°C° 0 mm 5 mps 729 mmHg 67%
10:00 +17°C° 0 mm 6 mps 730 mmHg 58%
11:00 +20°C° 0 mm 6 mps 731 mmHg 49%
12:00 +21°C° 0 mm 6 mps 731 mmHg 44%
13:00 +22°C° 0 mm 5 mps 731 mmHg 40%
14:00 +22°C° 0 mm 5 mps 731 mmHg 35%
15:00 +22°C° 0 mm 4 mps 732 mmHg 37%
16:00 +22°C° 0 mm 3 mps 732 mmHg 39%
17:00 +21°C° 0 mm 3 mps 732 mmHg 40%
18:00 +19°C° 0.4 mm 3 mps 733 mmHg 46%
19:00 +18°C° 0.4 mm 3 mps 733 mmHg 52%
20:00 +16°C° 0.4 mm 3 mps 734 mmHg 58%
21:00 +14°C° 0.1 mm 4 mps 734 mmHg 60%
22:00 +13°C° 0.1 mm 5 mps 735 mmHg 62%
23:00 +12°C° 0.1 mm 5 mps 735 mmHg 64%

28 September, Monday

Time Temperature Precipitation Wind Pressure Humidity
00:00 +12°C° 0.1 mm 5 mps 735 mmHg 65%
01:00 +10°C° 0.1 mm 5 mps 736 mmHg 65%
02:00 +10°C° 0.1 mm 5 mps 736 mmHg 66%
03:00 +10°C° 0 mm 5 mps 736 mmHg 65%
04:00 +10°C° 0 mm 5 mps 737 mmHg 64%
05:00 +9°C° 0 mm 5 mps 737 mmHg 63%
06:00 +10°C° 0 mm 5 mps 737 mmHg 61%
07:00 +10°C° 0 mm 5 mps 738 mmHg 59%
08:00 +10°C° 0 mm 6 mps 738 mmHg 57%
09:00 +13°C° 0 mm 6 mps 738 mmHg 51%
10:00 +14°C° 0 mm 6 mps 739 mmHg 45%
11:00 +16°C° 0 mm 6 mps 739 mmHg 39%
12:00 +17°C° 0 mm 6 mps 739 mmHg 35%
13:00 +19°C° 0 mm 5 mps 739 mmHg 31%
14:00 +20°C° 0 mm 5 mps 739 mmHg 27%
15:00 +20°C° 0 mm 5 mps 739 mmHg 27%
16:00 +19°C° 0 mm 4 mps 739 mmHg 27%
17:00 +19°C° 0 mm 4 mps 738 mmHg 26%
18:00 +17°C° 0 mm 3 mps 739 mmHg 32%
19:00 +15°C° 0 mm 2 mps 739 mmHg 37%
20:00 +14°C° 0 mm 1 mps 739 mmHg 43%
21:00 +14°C° 0 mm 1 mps 739 mmHg 48%
22:00 +13°C° 0 mm 2 mps 739 mmHg 54%
23:00 +13°C° 0 mm 2 mps 740 mmHg 59%
Show more